Location: *
(48.4281°N, 5.9947°E)
Time: 11:03:49
(UTC+00:00)

Daily predictions for brighter satellites

Satellite Brightness Start Highest point End
(mag) Time Altitude Azimuth Time Altitude Azimuth Time Altitude Azimuth
ATLAS 3B R/B 4.1 16:56:33 10° SE 16:59:58 15° ESE 17:03:22 10° ENE
Cosmos 1833 Rocket 2.8 16:54:32 10° NNW 17:00:07 61° ENE 17:05:40 10° SE
Unknown 4.3 16:56:13 10° WNW 17:00:12 43° N 17:04:11 10° ENE
Unknown 4.3 16:57:52 10° WNW 17:01:50 43° N 17:05:49 10° ENE
Cosmos 1953 3.1 16:57:53 10° SSW 17:01:53 59° WNW 17:05:56 10° N
Unknown 4.3 16:59:32 10° WNW 17:03:31 43° N 17:07:30 10° ENE
FALCON 9 DEB 3.2 17:00:48 10° WNW 17:04:16 85° SSW 17:07:46 10° ESE
Unknown 4.3 17:01:09 10° WNW 17:05:10 43° N 17:09:11 10° ENE
CENTAUR R/B 3.9 17:02:22 10° SE 17:05:49 16° ESE 17:09:32 10° ENE
Unknown 4.3 17:02:52 10° WNW 17:06:51 43° N 17:10:50 10° ENE
Cosmos 292 Rocket 3.8 17:03:26 10° SSW 17:08:10 85° ESE 17:12:58 10° NNE
Unknown 4.3 17:04:39 10° WNW 17:08:38 43° N 17:12:36 10° ENE
Cosmos 1242 Rocket 2.9 17:05:58 10° NNW 17:09:39 74° W 17:13:18 10° S
Cosmos 2084 Rocket 3.7 17:06:36 10° NW 17:10:58 53° NE 17:15:15 10° ESE
Unknown 4.3 17:07:55 10° WNW 17:11:54 43° N 17:15:53 10° ENE
Unknown 4.3 17:07:59 10° WNW 17:11:58 43° N 17:15:57 10° ENE
Unknown 4.3 17:09:34 10° WNW 17:13:33 43° N 17:17:30 10° ENE
Falcon 9 debris 3.5 17:13:10 10° WNW 17:16:36 65° SSW 17:20:01 10° SE
Unknown 4.3 17:12:49 10° WNW 17:16:48 43° N 17:20:36 11° ENE
SJ 16-02 3.0 17:14:07 10° NNE 17:16:52 16° NE 17:19:25 11° E
Unknown 4.0 17:14:00 10° WNW 17:17:47 47° N 17:21:17 12° E
SMAP 3.8 17:14:16 10° S 17:18:51 59° W 17:23:28 10° NNW
CORIOLIS 4.5 17:14:35 10° S 17:19:55 74° WSW 17:25:20 10° NNW
Unknown 4.3 17:16:16 10° WNW 17:20:15 43° N 17:23:53 12° ENE
Cosmos 2058 Rocket 3.1 17:16:09 10° S 17:20:30 88° W 17:24:53 10° N
Unknown 4.3 17:17:55 10° WNW 17:21:54 43° N 17:25:28 12° ENE
Abrixas rocket 2.0 17:18:59 10° WSW 17:22:02 74° SSE 17:24:36 14° E
Cosmos 1300 3.9 17:19:08 10° SE 17:22:03 21° E 17:24:58 10° NE
Unknown 4.3 17:19:36 10° WNW 17:23:35 43° N 17:27:05 13° ENE
Unknown 3.3 17:20:09 10° WNW 17:23:40 74° SSW 17:27:09 10° SE
COBE Rocket 4.0 17:19:48 10° NNE 17:24:55 62° E 17:29:52 10° S
Unknown 4.3 17:21:17 10° WNW 17:25:17 43° N 17:28:43 13° ENE
NOAA 12 4.2 17:20:20 10° SSE 17:25:38 88° WSW 17:31:01 10° NNW
Envisat 2.9 17:20:50 10° SSE 17:25:53 74° ENE 17:30:59 10° N
Unknown 4.3 17:24:38 10° WNW 17:28:37 43° N 17:31:53 14° ENE
Cosmos 1328 4.4 17:25:08 10° NNW 17:29:04 62° W 17:32:57 10° S
Unknown 4.3 17:26:21 10° WNW 17:30:21 44° N 17:33:32 15° ENE
Cosmos 1356 4.1 17:28:28 10° SSW 17:31:51 57° WNW 17:35:16 10° N
COSMO-SKYMED 1 2.7 17:27:39 10° NNE 17:31:54 50° E 17:36:07 10° S
Unknown 4.3 17:27:56 10° WNW 17:31:55 44° N 17:35:03 15° ENE
H-2A R/B 4.0 17:29:03 10° S 17:32:50 46° W 17:36:39 10° NNW
CSL-04 Debris 4.3 17:27:37 10° SE 17:32:56 55° ENE 17:38:18 10° N
Unknown 4.3 17:29:32 10° WNW 17:33:32 44° N 17:36:35 16° ENE
Cosmos 1898 Rocket 4.2 17:29:22 10° N 17:34:13 35° ENE 17:39:04 10° ESE
CZ-4 R/B 4.4 17:31:10 10° SSE 17:35:15 66° ENE 17:39:21 10° N
Unknown 4.3 17:31:18 10° WNW 17:35:18 44° N 17:38:16 16° ENE
Cosmos 2082 Rocket 2.2 17:29:41 10° NNW 17:35:26 77° ENE 17:41:07 10° SSE
Unknown 4.3 17:32:47 10° WNW 17:36:46 44° N 17:39:41 17° ENE
CZ-2D R/B 4.1 17:33:47 10° SE 17:37:09 29° ENE 17:40:32 10° N
USA 238 DEB 3.7 17:31:30 10° SSW 17:38:05 63° ESE 17:44:55 10° NE
USA 238 3.7 17:31:37 10° SSW 17:38:11 62° ESE 17:45:00 10° NE
Cosmos 2058 3.6 17:35:52 10° N 17:39:44 33° ENE 17:43:31 10° SE
Unknown 4.3 17:36:04 10° WNW 17:40:03 44° N 17:42:50 18° ENE
Cosmos 1844 Rocket 4.5 17:35:16 10° WSW 17:40:11 30° NW 17:45:06 10° NNE
Unknown 4.3 17:37:46 10° WNW 17:41:45 44° N 17:44:27 19° ENE
H-2A R/B 3.7 17:40:42 14° ENE 17:41:47 15° NE 17:44:48 10° NNE
Unknown 4.1 17:39:42 10° WNW 17:43:38 47° N 17:46:07 20° ENE
Unknown 4.2 17:39:38 10° WNW 17:43:38 45° N 17:46:15 19° ENE
Unknown 3.3 17:40:08 10° WNW 17:43:52 75° NNE 17:46:21 20° ESE
Unknown 4.0 17:41:16 10° WNW 17:44:40 48° SW 17:47:59 10° SE
Unknown 4.2 17:41:09 10° WNW 17:45:09 44° N 17:47:41 20° ENE
Cosmos 1459 Rocket 4.4 17:39:27 10° N 17:45:21 42° ENE 17:51:18 10° SE
Cosmos 1339 Rocket 4.4 17:39:35 10° S 17:45:40 82° E 17:51:54 10° N
Cosmos 1076 Rocket 3.6 17:41:53 10° N 17:46:10 52° ENE 17:50:24 10° SSE
Unknown 4.2 17:42:47 10° WNW 17:46:47 45° N 17:49:16 21° ENE
Unknown 4.2 17:46:08 10° WNW 17:50:08 45° N 17:52:28 22° ENE
Cosmos 1939 Rocket 3.4 17:47:34 10° SE 17:51:18 38° ENE 17:55:06 10° N
Okean-O 4.0 17:47:06 10° S 17:51:18 42° W 17:55:33 10° NNW
Cosmos 1726 3.7 17:48:18 10° SW 17:51:43 37° WNW 17:55:08 10° N
Unknown 4.2 17:47:46 10° WNW 17:51:47 45° N 17:54:02 23° ENE
Unknown 4.2 17:49:26 10° WNW 17:53:27 45° N 17:55:37 23° ENE
Unknown 4.2 17:51:09 10° WNW 17:55:10 46° N 17:57:16 24° ENE
Unknown 4.1 17:52:21 10° WNW 17:56:20 47° N 17:58:19 26° ENE
ATLAS 5 CENTAUR R/B 3.9 17:53:39 10° WNW 17:57:02 19° NNW 18:00:45 10° NNE
In-Cosmos 22 Rocket 4.3 17:52:07 10° N 17:57:23 48° ENE 18:02:43 10° SSE
Unknown 4.2 17:54:30 10° WNW 17:58:30 46° N 18:00:28 26° ENE
Cosmos 2061 Rocket 4.4 17:53:09 10° N 17:58:58 39° ENE 18:04:43 10° SE
Unknown 4.1 17:55:22 10° WNW 17:59:23 47° N 18:01:18 27° ENE
NOSS 3-2 (A) 3.4 17:54:09 10° SSW 17:59:54 70° SE 18:06:28 10° NE
Cosmos 1605 Rocket 4.4 17:54:01 10° NNW 18:00:08 66° W 18:06:09 10° S
Unknown 4.1 17:56:11 10° WNW 18:00:14 48° N 18:02:06 27° ENE
Cosmos 2151 3.8 17:58:00 10° N 18:01:48 29° ENE 18:02:29 28° E
Unknown 4.1 17:58:03 10° WNW 18:02:05 48° N 18:03:53 28° ENE
Okean 3 Rocket 4.1 17:59:06 10° N 18:03:21 38° ENE 18:05:52 21° SE
Unknown 4.1 18:01:11 10° WNW 18:05:13 48° N 18:06:52 30° ENE
Unknown 4.1 18:04:30 10° WNW 18:08:32 49° N 18:10:03 32° ENE
Ariane Rocket 3.1 18:03:38 10° SE 18:08:35 54° ENE 18:13:34 10° N
Cosmos 1812 Rocket 3.5 18:04:54 10° S 18:09:21 89° E 18:13:51 10° N
Unknown 4.1 18:06:07 10° WNW 18:10:10 49° NNE 18:11:36 33° ENE
Meteor 2-1 Rocket 4.3 18:05:42 10° SSE 18:11:00 51° E 18:16:25 10° NNE
Cosmos 468 Rocket 4.3 18:06:11 10° S 18:11:07 43° ESE 18:15:41 12° NE
Unknown 4.0 18:07:49 10° WNW 18:11:52 49° NNE 18:13:14 34° ENE
ADEOS Rocket 4.2 18:05:58 10° NNE 18:12:02 25° E 18:13:06 25° E
HJ-1C 4.2 18:13:18 34° NE 18:13:18 34° NE 18:15:48 10° N
Unknown 4.0 18:09:26 10° WNW 18:13:29 50° NNE 18:14:46 35° ENE
Cosmos 1727 Rocket 4.0 18:09:43 10° S 18:15:54 87° W 18:22:08 10° N
Cosmos 2173 Rocket 3.9 18:10:04 10° N 18:16:19 68° ENE 18:22:25 10° SSE
YAOGAN 6 3.8 18:13:30 10° S 18:16:58 43° W 18:20:27 10° NNW
Cosmos 2278 Rocket 3.0 18:11:35 10° SW 18:17:06 51° NW 18:22:40 10° NNE
SKYMED 2 4.3 18:15:44 10° N 18:19:59 55° WNW 18:24:13 10° SSW
Cosmos 990 Rocket 3.9 18:14:47 10° NNW 18:20:01 71° ENE 18:23:48 19° SSE
YAOGAN 1 3.1 18:15:50 10° S 18:20:06 59° W 18:24:24 10° NNW
Unknown 4.0 18:16:08 10° WNW 18:20:13 52° NNE 18:21:13 41° ENE
Lacrosse 5 3.3 18:15:58 10° WNW 18:20:34 36° SW 18:25:09 10° SSE
Unknown 3.9 18:17:49 10° WNW 18:21:54 52° NNE 18:22:50 42° ENE
CSL-04 Rocket 4.1 18:16:37 10° S 18:22:04 64° WSW 18:27:31 10° NNW
Cosmos 1937 Rocket 3.4 18:17:47 10° NNW 18:22:53 59° ENE 18:25:12 31° SE
Cosmos 2297 3.6 18:17:35 10° SSW 18:23:14 68° ESE 18:28:57 10° NNE
Unknown 3.9 18:19:29 10° WNW 18:23:33 53° NNE 18:24:25 44° ENE
Cosmos 858 Rocket 4.4 18:19:58 10° NNW 18:25:09 64° ENE 18:27:44 30° SE
Unknown 3.9 18:21:07 10° WNW 18:25:12 54° NNE 18:25:59 45° NE
CZ-4 R/B 3.0 18:22:23 10° SSW 18:26:20 39° W 18:30:20 10° NNW
Unknown 3.9 18:22:48 10° WNW 18:26:53 54° NNE 18:27:36 47° NE
NOSS 3-2 (C) 3.3 18:21:15 10° SSW 18:27:01 71° SE 18:31:44 20° NE
Unknown 3.3 18:23:29 10° WNW 18:27:20 85° SSW 18:27:57 61° SE
BREEZE-M DEB (TANK) 2.9 18:18:05 10° WSW 18:27:20 59° SSE 18:28:17 45° ESE
ARGOS 4.0 18:27:50 30° ENE 18:27:50 30° ENE 18:32:15 10° N
Unknown 3.8 18:26:06 10° WNW 18:30:13 55° NNE 18:30:47 50° NE
Cosmos 1802 Rocket 3.9 18:24:25 10° N 18:30:53 73° E 18:37:14 10° SSE
Starlink (trailer) 3.8 18:27:46 10° WNW 18:31:52 56° NNE 18:32:23 52° NE
Cosmos 2123 Rocket 4.2 18:26:20 10° SSE 18:32:13 44° E 18:38:05 10° NNE
Unknown 3.8 18:29:28 10° WNW 18:33:34 57° NNE 18:34:00 53° NE
Cosmos 1570 Rocket 4.2 18:28:39 10° S 18:33:45 48° ESE 18:34:59 40° ENE
USA 116 4.2 18:32:01 10° N 18:35:11 49° WNW 18:38:39 10° SSW
Unknown 3.7 18:31:10 10° WNW 18:35:16 58° NNE 18:35:38 55° NE
ATLAS CENTAUR R/B 3.0 18:32:43 10° NNW 18:36:02 23° NNE 18:36:02 23° NNE
Cosmos 2233 Rocket 4.5 18:31:16 10° N 18:37:06 38° ENE 18:37:21 37° ENE
Cosmos 1000 Rocket 4.4 18:31:44 10° S 18:37:56 77° E 18:44:14 10° NNE
Cosmos 1892 3.1 18:34:41 10° N 18:37:37 48° NNE 18:37:37 48° NNE
Unknown 3.7 18:36:08 10° WNW 18:40:15 60° NNE 18:40:24 60° NNE
Cosmos-2242 2.8 18:36:12 10° S 18:40:32 71° E 18:44:52 10° NNE
Cosmos 1725 Rocket 4.0 18:34:38 10° N 18:40:51 59° ENE 18:43:50 31° SE
Unknown 3.7 18:37:45 10° WNW 18:41:53 61° NNE 18:41:58 61° NNE
Unknown 3.7 18:39:26 10° WNW 18:43:33 62° NNE 18:43:33 62° NNE
Cosmos 44 3.2 18:38:39 10° SW 18:43:34 82° NW 18:45:15 40° NNE
NOAA 11 4.5 18:39:09 10° S 18:44:33 67° WSW 18:49:59 10° NNW
Unknown 3.7 18:41:02 10° WNW 18:45:10 63° NNE 18:45:10 63° NNE
Cosmos 1763 Rocket 3.4 18:40:27 10° S 18:45:42 65° ESE 18:47:27 41° NE
SL-27 R/B 4.0 18:43:29 10° NNW 18:45:03 25° NNW 18:45:03 25° NNW
Unknown 3.7 18:42:44 10° WNW 18:46:45 63° N 18:46:45 63° N
Cosmos 2100 Rocket 4.2 18:40:56 10° NNW 18:47:05 70° W 18:53:10 10° S
CZ-2C R/B 4.3 18:48:12 30° NE 18:48:12 30° NE 18:52:05 10° N
Unknown 3.7 18:44:31 10° WNW 18:48:27 65° N 18:48:27 65° N
ATLAS 3B R/B 2.5 18:42:50 10° SSW 18:49:30 70° SE 18:52:29 35° NE
Unknown 3.8 18:47:46 10° WNW 18:51:34 63° NNW 18:51:34 63° NNW
Unknown 3.8 18:47:50 10° WNW 18:51:38 64° NNW 18:51:38 64° NNW
BREEZE-M DEB (TANK) 3.8 18:49:00 10° WSW 18:51:06 31° WSW 18:51:06 31° WSW
Unknown 3.9 18:49:25 10° WNW 18:53:09 62° NNW 18:53:09 62° NNW
Cosmos 2298 Rocket 4.2 18:49:47 10° NNW 18:54:40 53° NE 18:54:40 53° NE
CENTAUR R/B 2.4 18:49:05 10° SSW 18:55:06 78° SE 18:58:22 33° NE
SJ 16-02 1.4 18:51:36 10° NNW 18:56:01 74° WSW 18:56:27 66° SSW
Unknown 3.9 18:52:42 10° WNW 18:56:04 58° WSW 18:56:04 58° WSW
Unknown 4.0 18:52:39 10° WNW 18:56:16 60° NNW 18:56:16 60° NNW
Cosmos 1300 4.5 18:54:04 10° SW 18:57:32 32° WNW 19:01:00 10° N
Abrixas rocket 4.1 18:54:51 10° W 18:56:26 27° W 18:56:26 27° W
Unknown 4.1 18:56:04 10° WNW 18:59:33 58° NW 18:59:33 58° NW
Cosmos 2016 Rocket 4.0 18:55:20 10° N 19:01:39 83° W 19:07:42 12° S
Unknown 4.1 18:57:43 10° WNW 19:01:07 56° NW 19:01:07 56° NW
Unknown 4.2 18:59:24 10° WNW 19:02:44 55° NW 19:02:44 55° NW
Unknown 4.3 19:01:05 10° WNW 19:04:22 53° NW 19:04:22 53° NW
SPOT 3 Rocket 3.6 19:05:58 61° NNE 19:05:58 61° NNE 19:10:33 10° N
Unknown 4.4 19:04:24 10° WNW 19:07:32 50° NW 19:07:32 50° NW
Cosmos 2369 Rocket 4.4 19:03:59 10° S 19:04:07 11° S 19:04:07 11° S
Meteor 2-3 Rocket 4.4 19:03:50 10° N 19:07:59 41° NNE 19:07:59 41° NNE
Unknown 4.5 19:06:07 10° WNW 19:09:12 48° NW 19:09:12 48° NW
SL-08 R/B 4.4 19:05:02 10° N 19:11:10 83° W 19:13:56 35° S
Cosmos 2227 Rocket 4.5 19:13:02 10° N 19:14:09 11° NNE 19:14:09 11° NNE
Cosmos 2297 Rocket 4.4 19:17:07 10° N 19:18:26 12° NNE 19:18:26 12° NNE
H-2A R/B 2.4 19:21:19 60° N 19:21:19 60° N 19:25:48 10° NNW
Cosmos 1943 Rocket 4.1 19:19:28 10° SSW 19:20:37 17° SSW 19:20:37 17° SSW
ATLAS 5 CENTAUR R/B 4.2 19:40:25 10° NNW 19:43:20 16° N 19:43:20 16° N
Resurs 01 Rocket 4.3 19:53:25 13° N 19:53:25 13° N 19:53:53 10° N
ADEOS Rocket 3.5 19:50:38 10° NNE 19:58:18 76° WNW 19:59:59 56° SW
ATLAS CENTAUR R/B 4.3 20:11:26 10° NW 20:12:14 15° NW 20:12:14 15° NW
ATLAS 3B R/B 3.9 20:34:30 10° W 20:39:47 36° NW 20:39:47 36° NW
CENTAUR R/B 4.0 20:40:35 10° W 20:45:37 35° NW 20:45:37 35° NW
